Location: Moscow
(55.7500°N, 37.5830°E)
Time: 04:52:42
(UTC+03:00)

Vanguard 1 Rocket - Pass Details

Date: 30 November 2021
Orbit: 651 x 4225 km, 34.3° (Epoch: 26 January)

Event Time Altitude Azimuth Distance (km) Brightness Sun altitude
Exits shadow 02:10:16 15° 140° (SE) 4,772 10.9 -50.1°
Maximum altitude 02:12:31 16° 130° (SE) 4,975 11.1 -49.8°
Drops below altitude 10° 02:21:22 10° 102° (ESE) 6,302 11.9 -49.0°
Sets 02:30:32 0° 85° (E) 7,982 12.7 -48.0°
